Details for Virgin Atlantic at EGLL




Go Back


Latest METAR
Local Time

EGLL 220920Z AUTO 24007KT 9999 -RA FEW036 13/09 Q1020 NOSIG
22/09/2018, 10:28:46

Description
Results
Virgin Atlantic Logo
Number of Pilots based at EGLL
1 Pilots Based here
Number of Virgin Atlantic Flights Departed from EGLL
2 Flights Departed
Number of Virgin Atlantic Flights Arrived at EGLL
1 Flights Arrived
Number of Virgin Atlantic Schedules Departing from EGLL
25 Schedules
Number of Virgin Atlantic Schedules Arriving at EGLL
24 Schedules
Number of Virgin Atlantic Schedules Departing from EGLL availible today
23 Schedules Today
Number of Virgin Atlantic Schedules Arriving at EGLL availible today
22 Schedules Today
Average Landing Rate at EGLL
-186 fpm
Virgin Atlantic Average Landing Rate at EGLL
-177 fpm
Total Fuel Purchased at EGLL by Virgin Atlantic
168,623.10 kgs / 371,746.49 lbs

Pilots Based at EGLL


Pilot ID
Pilot Name
Pilot Rank
No. of Flights
No. of Flying Hours
Chris Nicholson
53
133.39
Content